[[{"header":{"parameterUnit":"m.s-1","parameterCategory":1,"la1":30.2991,"la2":30.254,"lo1":-89.0895,"lo2":-89.0444,"dy":0.0017,"dx":0.0017,"nx":28,"ny":28,"refTime":"2025-09-11T03:00:00:Z","depth":0,"parameterNumber":2,"parameterNumberName":"U-component_of_WINDS"},"data":[0,0,0,0,0,0,0,0,0,0,0,0,0,0,0,0,0,0,0,0,0,0,0,0,0,0,0,0,0,0,0,0,0,0,0,0,0,0,0,0,0,0,0,0,0,0,0,0,0,0,0,0,0,0,0,0,0,0,-2.6763,-2.6762,0,-2.6704,-2.6703,-2.6703,-2.6572,-2.657,-2.6567,-2.6565,-2.6506,-2.6507,-2.6508,0,0,0,0,0,0,0,0,0,0,0,0,0,-2.6767,-2.6768,-2.6763,-2.6762,-2.6762,-2.6704,-2.6703,-2.6703,-2.6573,-2.657,-2.6566,-2.6563,-2.6506,-2.6507,-2.6508,0,0,0,0,0,0,0,0,0,0,0,0,0,-2.6743,-2.6768,-2.6763,-2.669,-2.6683,-2.6704,-2.6703,-2.6702,-2.6574,-2.657,-2.6566,-2.6562,-2.6506,-2.6507,-2.6508,-2.6597,0,0,-2.6513,-2.6513,0,0,0,0,0,0,0,0,-2.6744,-2.6743,-2.6702,-2.6695,-2.6687,-2.6641,-2.6683,-2.6667,-2.6575,-2.6615,-2.6565,-2.656,-2.6555,-2.6552,-2.655,-2.6594,-2.6592,-2.6513,-2.6514,-2.6514,-2.6515,0,0,0,0,0,0,0,-2.6746,-2.6744,-2.674,-2.6701,-2.6692,-2.6661,-2.6653,-2.668,-2.6608,-2.6611,-2.6602,-2.6596,-2.655,-2.6549,-2.6547,-2.6591,-2.6513,-2.6514,-2.6515,-2.6515,-2.6708,-2.6713,0,0,0,0,0,0,-2.6758,-2.6747,-2.6742,-2.6738,-2.6706,-2.6664,-2.6656,-2.666,-2.6607,-2.6596,-2.66,-2.6591,-2.6548,-2.6546,-2.6545,-2.6647,-2.6514,-2.6516,-2.6516,-2.6704,-2.6709,-2.6714,0,0,0,0,0,0,-2.6759,-2.6759,-2.6744,-2.674,-2.6735,-2.6669,-2.6675,-2.6661,-2.6659,-2.6599,-2.6586,-2.6611,-2.6545,-2.6543,-2.6586,-2.6643,-2.6516,-2.6518,-2.6699,-2.6706,-2.6712,-2.6851,0,0,0,0,0,0,-2.6759,-2.676,-2.6792,-2.6741,-2.6736,-2.6785,-2.6678,-2.6663,-2.6662,-2.6649,-2.6606,-2.6595,-2.6542,-2.6584,-2.6587,-2.6642,-2.6519,-2.6694,-2.6702,-2.671,-2.6841,-2.6861,-2.6879,0,0,0,0,0,-2.676,-2.6833,-2.6794,-2.6794,-2.6775,-2.6789,-2.6786,-2.6722,-2.6667,-2.67,-2.6661,-2.6596,-2.6636,-2.659,-2.6592,-2.6649,-2.669,-2.67,-2.6709,-2.6832,-2.6857,-2.6878,0,0,0,0,0,0,-2.6892,-2.6825,-2.6781,-2.684,-2.6821,-2.6767,-2.6805,-2.675,-2.6747,-2.6735,-2.6657,-2.6648,-2.6702,-2.6679,-2.6629,-2.6733,-2.6653,-2.6663,-2.6746,-2.6769,-2.6788,-2.6792,-2.652,0,0,0,0,0,-2.6928,-2.6944,-2.6885,-2.6943,-2.6935,-2.6873,-2.6876,-2.6829,-2.6806,-2.6798,-2.6762,-2.6744,-2.6752,-2.6759,-2.6763,-2.6837,-2.6827,-2.6877,-2.6896,-2.6912,-2.6922,-2.6962,-2.6984,-2.6746,-2.6746,-2.6745,0,0,-2.7002,-2.6968,-2.6982,-2.6968,-2.6948,-2.6968,-2.6866,-2.6891,-2.6905,-2.6802,-2.684,-2.6814,-2.6788,-2.6848,-2.6872,-2.683,-2.6986,-2.6924,-2.6938,-2.6939,-2.6974,-2.6997,-2.7017,-2.6752,-2.6751,-2.675,0,0,-2.7148,-2.7123,-2.7169,-2.7152,-2.7122,-2.708,-2.7092,-2.7046,-2.7025,-2.7062,-2.6986,-2.7002,-2.7018,-2.7003,-2.6998,-2.7142,-2.7083,-2.7145,-2.7244,-2.7284,-2.7303,-2.7319,-2.7372,-2.7392,-2.7156,-2.7156,-2.7156,0,-2.7244,-2.727,-2.72,-2.723,-2.7227,-2.7135,-2.7182,-2.7169,-2.7143,-2.7144,-2.7097,-2.7116,-2.7092,-2.7148,-2.7184,-2.7182,-2.7194,-2.715,-2.7306,-2.7321,-2.7336,-2.7385,-2.7405,-2.7164,-2.7163,-2.7162,-2.7161,0,-2.7391,-2.741,-2.7451,-2.7429,-2.7431,-2.747,-2.7407,-2.7418,-2.7371,-2.7335,-2.7376,-2.7344,-2.7341,-2.7351,-2.7306,-2.7402,-2.7377,-2.732,-2.7237,-2.7368,-2.7413,-2.7431,-2.7175,-2.7172,-2.717,-2.7168,0,0,-2.7617,-2.7557,-2.7573,-2.7563,-2.7525,-2.754,-2.7576,-2.7573,-2.7584,-2.757,-2.7599,-2.7616,-2.7563,-2.7558,-2.751,-2.7545,-2.7664,-2.7483,-2.7481,-2.7519,-2.777,-2.7814,-2.7837,-2.7625,-2.7628,-2.763,-2.7773,0,-2.7754,-2.7811,-2.7751,-2.7821,-2.7839,-2.7753,-2.7784,-2.7766,-2.7733,-2.7745,-2.7709,-2.7723,-2.7652,-2.7648,-2.7679,-2.7643,-2.7713,-2.7632,-2.7653,-2.7654,-2.7662,-2.786,-2.7906,-2.8042,-2.779,-2.7793,-2.7795,0,-2.7922,-2.7917,-2.7988,-2.7948,-2.7954,-2.7983,-2.7977,-2.7989,-2.7967,-2.7941,-2.7937,-2.788,-2.7914,-2.7834,-2.7882,-2.7828,-2.7833,-2.7817,-2.7821,-2.7821,-2.7733,-2.7867,-2.8083,-2.8105,-2.7822,-2.782,-2.7818,0,-2.8082,-2.8092,-2.8137,-2.8131,-2.8085,-2.8108,-2.809,-2.8064,-2.8067,-2.8062,-2.8064,-2.8064,-2.8064,-2.8066,-2.8011,-2.7958,-2.8066,-2.7981,-2.8047,-2.8049,-2.8074,-2.8073,-2.8296,-2.8077,-2.8076,-2.8076,-2.8075,0,-2.8242,-2.829,-2.8208,-2.8236,-2.8288,-2.8219,-2.8273,-2.8246,-2.8224,-2.8247,-2.8172,-2.8195,-2.8121,-2.8137,-2.8094,-2.8141,-2.8142,-2.8123,-2.8111,-2.813,-2.8133,-2.8133,-2.8122,-2.8081,-2.808,-2.8079,-2.8078,0,-2.8428,-2.8376,-2.8419,-2.8373,-2.8362,-2.8403,-2.8364,-2.8389,-2.8352,-2.8382,-2.8385,-2.8328,-2.8343,-2.8289,-2.8295,-2.8266,-2.8336,-2.8308,-2.8344,-2.8336,-2.8405,-2.84,-2.8636,-2.8664,-2.8427,-2.8429,-2.8431,0,-2.8534,-2.8569,-2.8527,-2.8537,-2.8523,-2.8539,-2.8542,-2.8477,-2.8483,-2.8463,-2.8491,-2.85,-2.8503,-2.8531,-2.8492,-2.8496,-2.8469,-2.8551,-2.8469,-2.8488,-2.8472,-2.8471,-2.8475,-2.8569,-2.8572,-2.8574,-2.8576,0,-2.8729,-2.8702,-2.8708,-2.8708,-2.8713,-2.8709,-2.87,-2.8713,-2.8643,-2.8655,-2.8669,-2.8672,-2.8678,-2.8689,-2.8686,-2.8668,-2.8612,-2.8602,-2.8618,-2.8638,-2.8657,-2.8649,-2.8391,-2.8597,-2.8595,-2.8593,-2.8592,-2.8591,-2.8879,-2.8907,-2.8882,-2.8893,-2.888,-2.8874,-2.8895,-2.8863,-2.8873,-2.8873,-2.8834,-2.8857,-2.8837,-2.8827,-2.8816,-2.8834,-2.8796,-2.8818,-2.8824,-2.8831,-2.8844,-2.8654,-2.8833,-2.8833,-2.8832,-2.8831,-2.8831,0,-2.907,-2.9051,-2.9062,-2.9052,-2.9062,-2.9007,-2.8995,-2.9007,-2.9028,-2.9013,-2.9019,-2.9037,-2.9048,-2.901,-2.9015,-2.9037,-2.9012,-2.9041,-2.9039,-2.9037,-2.8877,-2.8863,-2.9062,-2.9062,-2.9062,-2.9062,-2.9062,-2.9062,-2.9171,-2.9216,-2.9187,-2.9225,-2.9205,-2.9227,-2.9225,-2.922,-2.9208,-2.9232,-2.924,-2.9215,-2.9193,-2.9196,-2.9204,-2.9193,-2.9199,-2.9238,-2.9219,-2.907,-2.9047,-2.9026,-2.9013,-2.924,-2.924,-2.9377,-2.9378,-2.9379]},{"header":{"parameterUnit":"m.s-1","parameterCategory":1,"la1":30.2991,"la2":30.254,"lo1":-89.0895,"lo2":-89.0444,"dy":0.0017,"dx":0.0017,"nx":28,"ny":28,"refTime":"2025-09-11T03:00:00:Z","depth":0,"parameterNumber":3,"parameterNumberName":"V-component_of_WINDS"},"data":[0,0,0,0,0,0,0,0,0,0,0,0,0,0,0,0,0,0,0,0,0,0,0,0,0,0,0,0,0,0,0,0,0,0,0,0,0,0,0,0,0,0,0,0,0,0,0,0,0,0,0,0,0,0,0,0,0,0,2.3969,2.3969,0,2.3947,2.3946,2.3946,2.3958,2.3959,2.396,2.396,2.393,2.3929,2.3927,0,0,0,0,0,0,0,0,0,0,0,0,0,2.4017,2.4016,2.3969,2.3969,2.3968,2.3947,2.3946,2.3946,2.3958,2.3959,2.396,2.396,2.3931,2.3929,2.3927,0,0,0,0,0,0,0,0,0,0,0,0,0,2.3995,2.4015,2.3969,2.3972,2.3972,2.3947,2.3946,2.3946,2.3958,2.3959,2.396,2.3961,2.3931,2.3929,2.3927,2.3895,0,0,2.3921,2.392,0,0,0,0,0,0,0,0,2.3996,2.3993,2.3972,2.3972,2.3972,2.3956,2.3952,2.3929,2.3958,2.3963,2.396,2.3961,2.3938,2.3935,2.3929,2.3894,2.3893,2.392,2.3919,2.3918,2.3918,0,0,0,0,0,0,0,2.3998,2.3994,2.396,2.3971,2.3971,2.3973,2.3971,2.3948,2.3945,2.3963,2.3964,2.3961,2.3938,2.3931,2.3928,2.3892,2.3921,2.3919,2.3917,2.3917,2.383,2.3829,0,0,0,0,0,0,2.4,2.3996,2.3961,2.3959,2.3987,2.3971,2.3969,2.396,2.3945,2.3944,2.396,2.3962,2.3934,2.393,2.3927,2.3888,2.3918,2.3916,2.3915,2.3831,2.383,2.3829,0,0,0,0,0,0,2.4001,2.3997,2.3961,2.3978,2.3973,2.3969,2.3959,2.3959,2.3952,2.3944,2.3943,2.3954,2.3934,2.393,2.3904,2.3887,2.3915,2.3914,2.3832,2.3831,2.3829,2.3811,0,0,0,0,0,0,2.4002,2.3997,2.3986,2.3977,2.3972,2.394,2.3959,2.3958,2.3949,2.3951,2.3937,2.3936,2.3935,2.3907,2.3901,2.3885,2.3912,2.3834,2.3832,2.383,2.3813,2.3809,2.3805,0,0,0,0,0,2.4004,2.398,2.3985,2.3981,2.3959,2.3939,2.3936,2.3937,2.3948,2.3936,2.3931,2.3936,2.3891,2.3904,2.3898,2.3881,2.3835,2.3832,2.383,2.3814,2.3809,2.3805,0,0,0,0,0,0,2.3984,2.3979,2.3985,2.3958,2.3949,2.3941,2.3926,2.3932,2.3918,2.392,2.392,2.3917,2.3889,2.3883,2.3897,2.3849,2.3864,2.386,2.3854,2.3849,2.3846,2.3846,2.391,0,0,0,0,0,2.3977,2.3963,2.3959,2.3935,2.3931,2.3929,2.3921,2.3923,2.3913,2.3908,2.3901,2.3889,2.3873,2.3861,2.3845,2.3813,2.3809,2.3798,2.3795,2.3792,2.3787,2.3769,2.3764,2.3821,2.3821,2.3821,0,0,2.3961,2.3956,2.3947,2.3931,2.3925,2.3909,2.3926,2.3908,2.3896,2.3905,2.388,2.3875,2.3861,2.3832,2.3819,2.3826,2.3772,2.3789,2.3786,2.3784,2.3766,2.3761,2.3756,2.3819,2.382,2.382,0,0,2.3923,2.3919,2.3899,2.3893,2.3885,2.3884,2.388,2.3871,2.3869,2.3845,2.3852,2.3836,2.3807,2.3798,2.3789,2.3751,2.3754,2.3746,2.3725,2.3707,2.3703,2.3699,2.3683,2.3678,2.3742,2.3742,2.3742,0,2.3903,2.3881,2.3887,2.387,2.3862,2.3873,2.3852,2.3845,2.3831,2.3824,2.3833,2.3798,2.379,2.3758,2.375,2.3743,2.3736,2.3745,2.3703,2.3699,2.3696,2.3681,2.3675,2.3741,2.3741,2.3741,2.3741,0,2.3857,2.3842,2.3827,2.3815,2.3806,2.3786,2.3788,2.3778,2.3782,2.378,2.3755,2.3746,2.3729,2.3722,2.3724,2.3691,2.3695,2.3704,2.3718,2.3689,2.3675,2.3669,2.3739,2.374,2.374,2.374,0,0,2.3802,2.3797,2.3791,2.3786,2.3779,2.3766,2.3747,2.3733,2.3723,2.3714,2.3696,2.3673,2.3682,2.3672,2.3674,2.3659,2.3627,2.3669,2.3669,2.366,2.3588,2.358,2.3573,2.3632,2.3631,2.363,2.3589,0,2.3763,2.3732,2.3738,2.3706,2.3692,2.3704,2.3687,2.368,2.3678,2.3664,2.3662,2.3645,2.3659,2.3653,2.3639,2.3634,2.3612,2.3638,2.3613,2.3612,2.3613,2.3566,2.3557,2.3519,2.3584,2.3583,2.3582,0,2.3712,2.3703,2.3671,2.3667,2.3661,2.3646,2.3633,2.3621,2.3613,2.3613,2.3604,2.3609,2.3588,2.3606,2.3576,2.3593,2.3584,2.358,2.3579,2.3574,2.3593,2.3558,2.3506,2.35,2.3574,2.3575,2.3575,0,2.3673,2.3653,2.3631,2.3627,2.3622,2.3611,2.3608,2.3602,2.3593,2.3582,2.3576,2.3562,2.3553,2.3542,2.3542,2.3555,2.3512,2.353,2.3509,2.3509,2.3496,2.3496,2.344,2.3495,2.3495,2.3495,2.3495,0,2.3626,2.3606,2.3614,2.36,2.3577,2.3585,2.3561,2.3559,2.3554,2.3539,2.3549,2.3534,2.3537,2.3522,2.3522,2.3497,2.3493,2.3491,2.3491,2.3489,2.3488,2.348,2.3481,2.3494,2.3494,2.3494,2.3495,0,2.3577,2.3582,2.3559,2.3558,2.3557,2.354,2.3538,2.3524,2.3525,2.3506,2.3502,2.3502,2.3485,2.3486,2.3465,2.3466,2.3434,2.3438,2.3437,2.3437,2.3416,2.3417,2.3349,2.334,2.3404,2.3403,2.3403,0,2.3546,2.353,2.3528,2.352,2.3517,2.3504,2.3496,2.3503,2.3494,2.3485,2.3472,2.3457,2.3444,2.3416,2.3413,2.3398,2.34,2.3378,2.3397,2.3396,2.3397,2.3397,2.3394,2.3373,2.3372,2.3371,2.3371,0,2.3488,2.3493,2.3482,2.3472,2.3463,2.3456,2.3449,2.3441,2.3447,2.3437,2.3421,2.3412,2.3393,2.3377,2.3363,2.3358,2.3364,2.3366,2.336,2.3355,2.3354,2.3352,2.3424,2.3366,2.3366,2.3367,2.3367,2.3367,2.3445,2.3432,2.3429,2.3417,2.3414,2.3408,2.3395,2.3396,2.3383,2.337,2.3375,2.3357,2.335,2.3332,2.3326,2.3311,2.3318,2.331,2.3307,2.3304,2.3301,2.336,2.3308,2.3309,2.3309,2.3309,2.3309,0,2.3387,2.3386,2.3375,2.3367,2.3357,2.3369,2.3362,2.3352,2.3337,2.3331,2.332,2.3302,2.3287,2.3285,2.327,2.3258,2.326,2.3253,2.3252,2.3251,2.3296,2.3302,2.3251,2.3251,2.3252,2.3252,2.3252,2.3252,2.3355,2.3333,2.3337,2.3314,2.3313,2.3297,2.3292,2.3286,2.3282,2.3262,2.325,2.325,2.3245,2.3231,2.3217,2.3217,2.3209,2.3201,2.3201,2.3242,2.3248,2.3253,2.3258,2.32,2.32,2.3157,2.3156,2.3156]}]]